,,PA_Meas_PMT16A,,PR_Meas_QMR101_102,,RH_Meas_QMH101,,SR_Meas_QMS101,,TA_Meas_QMH101,,GenWind,,GenWind,
time,status,PA,status,PR,status,RH,status,SR,status,TA,status,DirAvg,status,SpdAvg,
2017-02-18, 14:34:04,VALID,919.162,VALID,0,INVALID,128.607,VALID,121.516,VALID,20.465,VALID,136,VALID,2.23008,
2017-02-18, 14:35:04,VALID,919.193,VALID,0,INVALID,128.767,VALID,187.7,VALID,20.5024,VALID,126,VALID,2.55703,
2017-02-18, 14:36:04,VALID,919.177,VALID,0,INVALID,128.485,VALID,195.865,VALID,20.621,VALID,145,VALID,2.42852,
2017-02-18, 14:37:04,VALID,919.213,VALID,0,INVALID,127.784,VALID,108.086,VALID,20.678,VALID,141,VALID,2.32969,
2017-02-18, 14:38:04,VALID,919.206,VALID,0,INVALID,126.968,VALID,105.292,VALID,20.7755,VALID,160,VALID,3.12148,
2017-02-18, 14:39:04,VALID,919.24,VALID,0,INVALID,126.701,VALID,134.409,VALID,20.8145,VALID,175,VALID,1.63594,
2017-02-18, 14:40:04,VALID,919.244,VALID,0,INVALID,126.145,VALID,114.21,VALID,20.834,VALID,158,VALID,2.62695,
2017-02-18, 14:41:04,VALID,919.229,VALID,0,INVALID,125.695,VALID,109.053,VALID,20.9136,VALID,164,VALID,1.03398,
2017-02-18, 14:43:04,VALID,919.268,VALID,0,INVALID,125.916,VALID,108.086,VALID,20.8925,VALID,139,VALID,2.78516,
2017-02-18, 14:49:04,VALID,919.354,VALID,0,INVALID,126.602,VALID,111.631,VALID,20.8145,VALID,147,VALID,2.98359,
2017-02-18, 14:50:04,VALID,919.349,VALID,0,INVALID,126.259,VALID,124.954,VALID,20.873,VALID,138,VALID,2.73867,
2017-02-18, 14:58:04,VALID,919.446,VALID,0,INVALID,124.102,VALID,115.822,VALID,21.1852,VALID,141,VALID,2.40781,
2017-02-18, 14:59:04,VALID,919.41,VALID,0,INVALID,122.097,VALID,111.202,VALID,21.2242,VALID,125,VALID,2.44531,
2017-02-18, 15:02:04,VALID,919.455,VALID,0,INVALID,120.572,VALID,182.113,VALID,21.3217,VALID,103,VALID,2.76289,
2017-02-18, 15:03:04,VALID,919.538,VALID,0,INVALID,121.334,VALID,124.847,VALID,21.3217,VALID,112,VALID,2.03789,
2017-02-18, 15:04:04,VALID,919.564,VALID,0,INVALID,112.453,VALID,120.227,VALID,21.3608,VALID,140,VALID,3.44141,
2017-02-18, 15:05:04,VALID,919.556,VALID,0,INVALID,117.507,VALID,127.533,VALID,21.4388,VALID,128,VALID,2.13242,
2017-02-18, 15:06:04,VALID,919.575,VALID,0,INVALID,111.996,VALID,135.698,VALID,21.4372,VALID,127,VALID,2.55977,
2017-02-18, 15:07:04,VALID,919.586,VALID,0,INVALID,119.947,VALID,164.17,VALID,21.4957,VALID,136,VALID,1.45898,
2017-02-18, 15:08:04,VALID,919.603,VALID,0,INVALID,113.589,VALID,150.955,VALID,21.5949,VALID,138,VALID,1.92383,
2017-02-18, 15:09:04,VALID,919.579,VALID,0,INVALID,109.053,VALID,296.86,VALID,21.6534,VALID,140,VALID,2.30312,
2017-02-18, 15:10:04,VALID,919.567,VALID,0,VALID,104,VALID,320.175,VALID,21.6924,VALID,108,VALID,1.74336,
2017-02-18, 15:11:04,VALID,919.616,VALID,0,VALID,104,VALID,242.387,VALID,21.829,VALID,129,VALID,2.3293,
2017-02-18, 15:12:04,VALID,919.576,VALID,0,VALID,99.7143,VALID,110.664,VALID,21.8469,VALID,143,VALID,3.18125,
2017-02-18, 15:19:04,VALID,919.51,VALID,0,INVALID,117.561,VALID,127.318,VALID,21.5932,VALID,128,VALID,2.51484,
2017-02-18, 15:20:04,VALID,919.484,VALID,0,INVALID,115.487,VALID,153.856,VALID,21.6323,VALID,138,VALID,2.49258,
2017-02-18, 15:21:04,VALID,919.502,VALID,0,INVALID,112.933,VALID,343.489,VALID,21.6713,VALID,134,VALID,3.70625,
2017-02-18, 15:22:04,VALID,919.469,VALID,0,VALID,104,VALID,371.317,VALID,21.8079,VALID,145,VALID,2.63594,
2017-02-18, 15:23:04,VALID,919.496,VALID,0,VALID,98.7537,VALID,165.674,VALID,21.9233,VALID,108,VALID,3.35273,
2017-02-18, 15:24:04,VALID,919.428,VALID,0,VALID,96.4133,VALID,121.194,VALID,22.003,VALID,133,VALID,2.48438,
2017-02-18, 15:25:04,VALID,919.492,VALID,0,VALID,97.008,VALID,122.698,VALID,22.0013,VALID,126,VALID,1.95234,
2017-02-18, 15:26:04,VALID,919.504,VALID,0,VALID,91.0388,VALID,150.31,VALID,22.003,VALID,137,VALID,4.54102,
2017-02-18, 15:27:04,VALID,919.518,VALID,0,VALID,93.5698,VALID,283.967,VALID,22.0225,VALID,142,VALID,2.83242,
2017-02-18, 15:28:04,VALID,919.561,VALID,0,VALID,93.2496,VALID,179.212,VALID,22.0615,VALID,137,VALID,3.0082,
2017-02-18, 15:29:04,VALID,919.547,VALID,0,VALID,98.4412,VALID,138.277,VALID,22.0403,VALID,143,VALID,2.11328,
2017-02-18, 15:30:04,VALID,919.513,VALID,0,VALID,95.7654,VALID,134.946,VALID,22.0989,VALID,142,VALID,2.69414,
2017-02-18, 15:31:04,VALID,919.514,VALID,0,VALID,97.008,VALID,160.302,VALID,22.042,VALID,135,VALID,3.09453,
2017-02-18, 15:32:04,VALID,919.564,VALID,0,VALID,96.7869,VALID,119.797,VALID,22.0225,VALID,133,VALID,3.03516,
2017-02-18, 15:33:04,VALID,919.555,VALID,0,VALID,96.6573,VALID,111.309,VALID,22.0208,VALID,150,VALID,2.72891,
2017-02-18, 15:34:04,VALID,919.514,VALID,0,VALID,95.8187,VALID,137.954,VALID,22.0208,VALID,121,VALID,3.70313,
2017-02-18, 15:35:04,VALID,919.518,VALID,0,VALID,98.9291,VALID,316.951,VALID,22.1005,VALID,145,VALID,3.04766,
2017-02-18, 15:36:04,VALID,919.567,VALID,0,VALID,95.0335,VALID,148.484,VALID,22.1574,VALID,154,VALID,4.54922,
2017-02-18, 15:37:04,VALID,919.575,VALID,0,VALID,90.772,VALID,191.245,VALID,22.2159,VALID,127,VALID,3.61328,
2017-02-18, 15:38:04,VALID,919.6,VALID,0,VALID,93.7528,VALID,114.103,VALID,22.2745,VALID,112,VALID,3.02266,
2017-02-18, 15:39:04,VALID,919.617,VALID,0,VALID,91.824,VALID,218.213,VALID,22.2745,VALID,115,VALID,2.80586,
2017-02-18, 15:40:04,VALID,919.619,VALID,0,VALID,93.7528,VALID,237.445,VALID,22.3135,VALID,118,VALID,2.41602,
2017-02-18, 15:41:04,VALID,919.639,VALID,0,VALID,92.007,VALID,279.777,VALID,22.3525,VALID,154,VALID,3.59375,
2017-02-18, 15:42:04,VALID,919.63,VALID,0,VALID,88.4545,VALID,109.053,VALID,22.3525,VALID,143,VALID,3.09648,
2017-02-18, 15:44:04,VALID,919.627,VALID,0,VALID,89.8877,VALID,111.524,VALID,22.3559,VALID,153,VALID,3.44531,
2017-02-18, 15:45:04,VALID,919.707,VALID,0,VALID,90.124,VALID,123.45,VALID,22.2957,VALID,159,VALID,2.49688,
2017-02-18, 15:46:04,VALID,919.708,VALID,0,VALID,92.3119,VALID,134.624,VALID,22.2762,VALID,133,VALID,2.10469,
2017-02-18, 15:47:04,VALID,919.717,VALID,0,VALID,88.7975,VALID,133.549,VALID,22.2762,VALID,140,VALID,2.99297,
2017-02-18, 15:48:04,VALID,919.682,VALID,0,VALID,89.3159,VALID,124.202,VALID,22.2762,VALID,157,VALID,2.14805,
2017-02-18, 15:49:04,VALID,919.695,VALID,0,VALID,88.3249,VALID,133.442,VALID,22.2957,VALID,136,VALID,3.31328,
2017-02-18, 15:50:04,VALID,919.644,VALID,0,VALID,89.9716,VALID,160.302,VALID,22.3364,VALID,122,VALID,3.81328,
2017-02-18, 15:51:04,VALID,919.668,VALID,0,VALID,90.5433,VALID,203.816,VALID,22.3152,VALID,157,VALID,3.02695,
2017-02-18, 15:52:04,VALID,919.697,VALID,0,VALID,89.5828,VALID,151.17,VALID,22.3542,VALID,146,VALID,1.7375,
2017-02-18, 15:53:04,VALID,919.701,VALID,0,VALID,87.2195,VALID,146.227,VALID,22.3933,VALID,130,VALID,2.67695,
2017-02-18, 15:54:04,VALID,919.708,VALID,0,VALID,87.8218,VALID,143.004,VALID,22.4501,VALID,153,VALID,2.38945,
2017-02-18, 15:55:04,VALID,919.669,VALID,0,VALID,87.6312,VALID,135.591,VALID,22.4713,VALID,150,VALID,2.78984,
2017-02-18, 15:56:04,VALID,919.732,VALID,0,VALID,87.1738,VALID,135.054,VALID,22.4323,VALID,164,VALID,4.05234,
2017-02-18, 15:57:04,VALID,919.732,VALID,0,VALID,86.6554,VALID,142.467,VALID,22.4128,VALID,146,VALID,2.4793,
2017-02-18, 15:58:04,VALID,919.752,VALID,0,VALID,88.3325,VALID,145.046,VALID,22.3916,VALID,149,VALID,1.82305,
2017-02-18, 15:59:04,VALID,919.745,VALID,0,VALID,90.4747,VALID,146.979,VALID,22.4518,VALID,150,VALID,3.5082,
2017-02-18, 16:00:04,VALID,919.707,VALID,0,VALID,86.3047,VALID,153.319,VALID,22.4518,VALID,148,VALID,4.58242,
2017-02-18, 16:01:04,VALID,919.703,VALID,0,VALID,86.6249,VALID,170.831,VALID,22.4713,VALID,110,VALID,2.825,
2017-02-18, 16:02:04,VALID,919.727,VALID,0,VALID,87.6769,VALID,212.304,VALID,22.5103,VALID,104,VALID,2.00625,
2017-02-18, 16:03:04,VALID,919.713,VALID,0,VALID,86.9527,VALID,231.858,VALID,22.5494,VALID,153,VALID,3.95117,
2017-02-18, 16:04:04,VALID,919.753,VALID,0,VALID,86.4267,VALID,240.024,VALID,22.5884,VALID,118,VALID,4.40586,
2017-02-18, 16:05:04,VALID,919.71,VALID,0,VALID,86.2513,VALID,191.675,VALID,22.6274,VALID,116,VALID,4.29375,
2017-02-18, 16:06:04,VALID,919.644,VALID,0,VALID,84.9249,VALID,172.98,VALID,22.5884,VALID,87,VALID,3.8,
2017-02-18, 16:07:04,VALID,919.716,VALID,0,VALID,86.8993,VALID,154.93,VALID,22.5867,VALID,154,VALID,2.60117,
2017-02-18, 16:08:04,VALID,919.668,VALID,0,VALID,84.8486,VALID,149.988,VALID,22.6079,VALID,134,VALID,4.24453,
2017-02-18, 16:09:04,VALID,919.717,VALID,0,VALID,86.9984,VALID,186.518,VALID,22.6062,VALID,139,VALID,1.7707,
2017-02-18, 16:10:04,VALID,919.741,VALID,0,VALID,85.2832,VALID,224.552,VALID,22.647,VALID,150,VALID,3.35508,
2017-02-18, 16:11:04,VALID,919.74,VALID,0,VALID,85.8702,VALID,479.188,VALID,22.6665,VALID,99,VALID,3.54805,
2017-02-18, 16:12:04,VALID,919.729,VALID,0,VALID,85.893,VALID,264.09,VALID,22.7445,VALID,83,VALID,3.35781,
2017-02-18, 16:13:04,VALID,919.721,VALID,0,VALID,85.2603,VALID,226.271,VALID,22.8226,VALID,133,VALID,3.42266,
2017-02-18, 16:14:04,VALID,919.77,VALID,0,VALID,83.1105,VALID,205.857,VALID,22.8209,VALID,142,VALID,4.82852,
2017-02-18, 16:15:04,VALID,919.725,VALID,0,VALID,84.5208,VALID,207.039,VALID,22.7818,VALID,132,VALID,2.66289,
2017-02-18, 16:16:04,VALID,919.706,VALID,0,VALID,85.4128,VALID,201.56,VALID,22.8404,VALID,146,VALID,2.37656,
2017-02-18, 16:17:04,VALID,919.689,VALID,0,VALID,83.606,VALID,202.956,VALID,22.8599,VALID,144,VALID,2.64102,
2017-02-18, 16:18:04,VALID,919.712,VALID,0,VALID,84.9401,VALID,201.345,VALID,22.8599,VALID,159,VALID,3.23281,
2017-02-18, 16:19:04,VALID,919.707,VALID,0,VALID,85.4356,VALID,229.279,VALID,22.9007,VALID,119,VALID,3.54844,
2017-02-18, 16:20:04,VALID,919.676,VALID,0,VALID,83.1486,VALID,220.039,VALID,22.8599,VALID,109,VALID,4.16172,
2017-02-18, 16:21:04,VALID,919.685,VALID,0,VALID,84.6275,VALID,192.749,VALID,22.8599,VALID,117,VALID,2.58945,
2017-02-18, 16:22:04,VALID,919.687,VALID,0,VALID,85.6415,VALID,161.377,VALID,22.8794,VALID,85,VALID,3.17461,
2017-02-18, 16:23:04,VALID,919.67,VALID,0,VALID,85.0849,VALID,168.683,VALID,22.8404,VALID,71,VALID,3.62617,
2017-02-18, 16:24:04,VALID,919.733,VALID,0,VALID,85.5652,VALID,193.716,VALID,22.8599,VALID,135,VALID,2.15547,
2017-02-18, 16:25:04,VALID,919.74,VALID,0,VALID,83.6594,VALID,251.197,VALID,22.8794,VALID,146,VALID,3.39492,
2017-02-18, 16:26:04,VALID,919.734,VALID,0,VALID,86.0607,VALID,240.024,VALID,22.9948,VALID,118,VALID,1.77109,
2017-02-18, 16:27:04,VALID,919.73,VALID,0,VALID,85.4509,VALID,219.717,VALID,23.1331,VALID,93,VALID,2.0168,
2017-02-18, 16:28:04,VALID,919.746,VALID,0,VALID,81.8679,VALID,213.593,VALID,23.1722,VALID,118,VALID,3.43438,
2017-02-18, 16:29:04,VALID,919.74,VALID,0,VALID,82.5159,VALID,232.718,VALID,23.1722,VALID,133,VALID,2.29766,
2017-02-18, 16:30:04,VALID,919.758,VALID,0,VALID,81.7688,VALID,219.932,VALID,23.1722,VALID,129,VALID,2.64063,
2017-02-18, 16:31:04,VALID,919.686,VALID,0,VALID,83.9491,VALID,203.171,VALID,23.1722,VALID,138,VALID,1.87305,
2017-02-18, 16:32:04,VALID,919.744,VALID,0,VALID,82.5387,VALID,185.873,VALID,23.1527,VALID,131,VALID,2.80078,
2017-02-18, 16:33:04,VALID,919.726,VALID,0,VALID,82.4701,VALID,177.708,VALID,23.1722,VALID,167,VALID,1.71172,
2017-02-18, 16:34:04,VALID,919.759,VALID,0,VALID,81.8755,VALID,182.865,VALID,23.2112,VALID,141,VALID,0.466016,
2017-02-18, 16:35:04,VALID,919.756,VALID,0,VALID,81.0826,VALID,201.13,VALID,23.1722,VALID,129,VALID,1.91719,
2017-02-18, 16:36:04,VALID,919.797,VALID,0,VALID,82.3863,VALID,233.685,VALID,23.1917,VALID,144,VALID,2.64297,
2017-02-18, 16:37:04,VALID,919.739,VALID,0,VALID,82.2795,VALID,253.239,VALID,23.2112,VALID,159,VALID,2.19688,
2017-02-18, 16:38:04,VALID,919.749,VALID,0,VALID,80.0382,VALID,233.362,VALID,23.2112,VALID,159,VALID,1.06211,
2017-02-18, 16:39:04,VALID,919.736,VALID,0,VALID,80.0764,VALID,232.18,VALID,23.2502,VALID,122,VALID,1.43203,
2017-02-18, 16:40:04,VALID,919.729,VALID,0,VALID,81.6544,VALID,245.825,VALID,23.3283,VALID,109,VALID,1.70742,
2017-02-18, 16:41:04,VALID,919.687,VALID,0,VALID,79.9468,VALID,326.943,VALID,23.3265,VALID,143,VALID,2.82344,
2017-02-18, 16:42:04,VALID,919.704,VALID,0,VALID,83.9262,VALID,296.108,VALID,23.4046,VALID,107,VALID,2.05195,
2017-02-18, 16:43:04,VALID,919.698,VALID,0,VALID,81.4714,VALID,266.669,VALID,23.465,VALID,112,VALID,1.35195,
2017-02-18, 16:44:04,VALID,919.715,VALID,0,VALID,80.6176,VALID,250.875,VALID,23.5626,VALID,138,VALID,0,
2017-02-18, 16:45:04,VALID,919.682,VALID,0,VALID,80.8387,VALID,246.255,VALID,23.6815,VALID,133,VALID,1.19648,
2017-02-18, 16:46:04,VALID,919.7,VALID,0,VALID,77.9799,VALID,333.068,VALID,23.6797,VALID,124,VALID,2.66094,
2017-02-18, 16:47:04,VALID,919.672,VALID,0,VALID,77.4539,VALID,263.661,VALID,23.5821,VALID,156,VALID,4.48398,
2017-02-18, 16:48:04,VALID,919.698,VALID,0,VALID,79.1539,VALID,241.313,VALID,23.543,VALID,135,VALID,3.76484,
2017-02-18, 16:49:04,VALID,919.637,VALID,0,VALID,77.3853,VALID,240.776,VALID,23.465,VALID,181,VALID,3.55156,
2017-02-18, 16:50:04,VALID,919.662,VALID,0,VALID,78.7804,VALID,242.172,VALID,23.4472,VALID,133,VALID,3.69375,
2017-02-18, 16:51:04,VALID,919.633,VALID,0,VALID,77.9952,VALID,265.917,VALID,23.4472,VALID,118,VALID,3.39609,
2017-02-18, 16:52:04,VALID,919.667,VALID,0,VALID,78.6965,VALID,296.108,VALID,23.4667,VALID,129,VALID,1.70977,
2017-02-18, 16:53:04,VALID,919.643,VALID,0,VALID,78.5441,VALID,301.91,VALID,23.504,VALID,156,VALID,2.23711,
2017-02-18, 16:54:04,VALID,919.699,VALID,0,VALID,80.1983,VALID,277.198,VALID,23.5626,VALID,115,VALID,2.23945,
2017-02-18, 16:55:04,VALID,919.684,VALID,0,VALID,79.3598,VALID,259.578,VALID,23.6211,VALID,133,VALID,1.26016,
2017-02-18, 16:56:04,VALID,919.696,VALID,0,VALID,79.4589,VALID,273.008,VALID,23.6584,VALID,114,VALID,1.73086,
2017-02-18, 16:57:04,VALID,919.698,VALID,0,VALID,76.3256,VALID,334.035,VALID,23.6992,VALID,155,VALID,2.28945,
2017-02-18, 16:58:04,VALID,919.703,VALID,0,VALID,76.7754,VALID,644.325,VALID,23.6016,VALID,127,VALID,2.20742,
2017-02-18, 16:59:04,VALID,919.638,VALID,0,VALID,78.605,VALID,359.606,VALID,23.6602,VALID,107,VALID,2.99258,
2017-02-18, 17:00:04,VALID,919.685,VALID,0,VALID,78.2849,VALID,342.952,VALID,23.6797,VALID,158,VALID,4.02891,
2017-02-18, 17:01:04,VALID,919.757,VALID,0,VALID,78.3916,VALID,300.835,VALID,23.6211,VALID,128,VALID,3.45937,
2017-02-18, 17:02:04,VALID,919.711,VALID,0,VALID,78.018,VALID,631.432,VALID,23.5626,VALID,99,VALID,3.32734,
2017-02-18, 17:03:04,VALID,919.683,VALID,0,VALID,78.2849,VALID,859.099,VALID,23.6388,VALID,157,VALID,3.38594,
2017-02-18, 17:04:04,VALID,919.704,VALID,0,VALID,78.91,VALID,309.001,VALID,23.7773,VALID,154,VALID,4.57266,
2017-02-18, 17:05:04,VALID,919.724,VALID,0,VALID,75.4794,VALID,367.879,VALID,23.7382,VALID,135,VALID,3.09102,
2017-02-18, 17:06:04,VALID,919.699,VALID,0,VALID,78.1171,VALID,454.691,VALID,23.7169,VALID,151,VALID,3.60313,
2017-02-18, 17:07:04,VALID,919.763,VALID,0,VALID,80.0611,VALID,349.828,VALID,23.8536,VALID,138,VALID,3.23711,
2017-02-18, 17:08:04,VALID,919.739,VALID,0,VALID,77.027,VALID,396.35,VALID,23.8731,VALID,123,VALID,2.77695,
2017-02-18, 17:09:04,VALID,919.728,VALID,0,VALID,76.6001,VALID,786.147,VALID,23.8536,VALID,146,VALID,4.52812,
2017-02-18, 17:10:04,VALID,919.779,VALID,0,VALID,77.8579,VALID,297.397,VALID,23.795,VALID,122,VALID,1.64492,
2017-02-18, 17:11:04,VALID,919.779,VALID,0,VALID,77.3929,VALID,442.013,VALID,23.8536,VALID,137,VALID,2.9832,
2017-02-18, 17:12:04,VALID,919.856,VALID,0,VALID,77.5225,VALID,238.304,VALID,23.7755,VALID,148,VALID,3.5168,
2017-02-18, 17:13:04,VALID,919.84,VALID,0,VALID,78.1019,VALID,234.114,VALID,23.7364,VALID,154,VALID,3.25742,
2017-02-18, 17:14:04,VALID,919.908,VALID,0,VALID,78.2391,VALID,298.149,VALID,23.6779,VALID,127,VALID,2.33398,
2017-02-18, 17:15:04,VALID,919.892,VALID,0,VALID,78.9938,VALID,246.47,VALID,23.7169,VALID,126,VALID,2.38203,
2017-02-18, 17:16:04,VALID,919.924,VALID,0,VALID,79.4131,VALID,233.362,VALID,23.8554,VALID,60,VALID,3.17852,
2017-02-18, 17:17:04,VALID,919.923,VALID,0,VALID,75.2965,VALID,229.387,VALID,23.795,VALID,38,VALID,2.21172,
2017-02-18, 17:18:04,VALID,919.898,VALID,0,VALID,75.7691,VALID,250.445,VALID,23.8536,VALID,39,VALID,1.87578,
2017-02-18, 17:19:04,VALID,919.931,VALID,0,VALID,75.1669,VALID,404.623,VALID,23.9707,VALID,18,VALID,0.894922,
2017-02-18, 17:20:04,VALID,919.962,VALID,0,VALID,75.5176,VALID,367.341,VALID,24.1659,VALID,31,VALID,0,
2017-02-18, 17:21:04,VALID,919.968,VALID,0,VALID,74.3893,VALID,308.249,VALID,24.244,VALID,73,VALID,0,
2017-02-18, 17:22:04,VALID,920.011,VALID,0,VALID,73.5812,VALID,313.406,VALID,24.3416,VALID,71,VALID,0,
2017-02-18, 17:23:04,VALID,920.021,VALID,0,VALID,75.5938,VALID,329.952,VALID,24.4374,VALID,56,VALID,0,
2017-02-18, 17:24:04,VALID,919.999,VALID,0,VALID,74.1301,VALID,299.116,VALID,24.4197,VALID,52,VALID,0.716016,
2017-02-18, 17:25:04,VALID,920.055,VALID,0,VALID,77.4996,VALID,278.595,VALID,24.3202,VALID,61,VALID,0,
2017-02-18, 17:26:04,VALID,920.013,VALID,0,VALID,75.975,VALID,260.652,VALID,24.3026,VALID,24,VALID,2.29609,
2017-02-18, 17:27:04,VALID,920.013,VALID,0,VALID,72.1785,VALID,264.95,VALID,24.1836,VALID,28,VALID,2.39844,
2017-02-18, 17:28:04,VALID,920.019,VALID,0,VALID,73.909,VALID,265.595,VALID,24.0683,VALID,24,VALID,0.953906,
2017-02-18, 17:29:04,VALID,920.024,VALID,0,VALID,73.5736,VALID,250.983,VALID,24.0115,VALID,113,VALID,0,
2017-02-18, 17:30:04,VALID,920.028,VALID,0,VALID,74.9382,VALID,237.767,VALID,23.992,INVALID,360,VALID,0,
2017-02-18, 17:31:04,VALID,920.001,VALID,0,VALID,77.027,VALID,231.428,VALID,24.0683,VALID,60,VALID,0.00117188,
2017-02-18, 17:32:04,VALID,920.014,VALID,0,VALID,78.2544,VALID,221.651,VALID,24.0292,VALID,114,VALID,3.16797,
2017-02-18, 17:33:04,VALID,920.039,VALID,0,VALID,77.3243,VALID,212.626,VALID,23.9316,VALID,49,VALID,2.27422,
2017-02-18, 17:34:04,VALID,920.068,VALID,0,VALID,77.9266,VALID,218.428,VALID,23.8713,VALID,119,VALID,3.47734,
2017-02-18, 17:35:04,VALID,920.051,VALID,0,VALID,78.7346,VALID,247.759,VALID,23.6956,VALID,73,VALID,2.28945,
2017-02-18, 17:36:04,VALID,920.056,VALID,0,VALID,78.6355,VALID,287.405,VALID,23.6779,VALID,66,VALID,0.644922,
2017-02-18, 17:37:04,VALID,920.081,VALID,0,VALID,79.5732,VALID,309.001,VALID,23.6956,VALID,111,VALID,0.0121094,
2017-02-18, 17:38:04,VALID,920.07,VALID,0,VALID,78.9481,VALID,315.77,VALID,23.7755,VALID,68,VALID,0.0121094,
2017-02-18, 17:39:04,VALID,920.073,VALID,0,VALID,78.4145,VALID,342.522,VALID,23.7542,VALID,84,VALID,1.53242,
2017-02-18, 17:40:04,VALID,920.069,VALID,0,VALID,79.1997,VALID,402.475,VALID,23.7737,VALID,76,VALID,2.23086,
2017-02-18, 17:41:04,VALID,920.038,VALID,0,VALID,78.9328,VALID,410.425,VALID,23.756,VALID,113,VALID,0.791016,
2017-02-18, 17:42:04,VALID,920.091,VALID,0,VALID,77.4692,VALID,393.127,VALID,23.7932,VALID,107,VALID,2.49414,
2017-02-18, 17:43:04,VALID,920.024,VALID,0,VALID,78.4221,VALID,369.812,VALID,23.7755,VALID,129,VALID,2.28359,
2017-02-18, 17:44:04,VALID,920.035,VALID,0,VALID,77.6369,VALID,357.672,VALID,23.7932,VALID,117,VALID,0.908984,
2017-02-18, 17:45:04,VALID,920.035,VALID,0,VALID,79.7943,VALID,357.994,VALID,23.8127,VALID,93,VALID,0.48125,
2017-02-18, 17:46:04,VALID,920.027,VALID,0,VALID,76.5925,VALID,331.671,VALID,23.7523,VALID,117,VALID,2.79805,
2017-02-18, 17:47:04,VALID,920.003,VALID,0,VALID,76.1808,VALID,306.744,VALID,23.6566,VALID,97,VALID,0.440234,
2017-02-18, 17:48:04,VALID,920.028,VALID,0,VALID,80.6786,VALID,299.438,VALID,23.6761,VALID,84,VALID,1.55586,
2017-02-18, 17:49:04,VALID,920.002,VALID,0,VALID,77.1718,VALID,302.662,VALID,23.7364,VALID,152,VALID,0.230469,
2017-02-18, 17:50:04,VALID,919.996,VALID,0,VALID,77.4844,VALID,286.438,VALID,23.7542,VALID,148,VALID,1.72617,
2017-02-18, 17:51:04,VALID,919.962,VALID,0,VALID,77.0041,VALID,284.397,VALID,23.7346,VALID,126,VALID,3.47383,
2017-02-18, 17:52:04,VALID,919.883,VALID,0,VALID,77.797,VALID,296.645,VALID,23.7151,VALID,67,VALID,3.525,
2017-02-18, 17:53:04,VALID,919.933,VALID,0,VALID,79.2683,VALID,317.166,VALID,23.7169,VALID,59,VALID,2.27617,
2017-02-18, 17:54:04,VALID,919.963,VALID,0,VALID,78.3077,VALID,321.786,VALID,23.7364,VALID,72,VALID,1.8543,
2017-02-18, 17:55:04,VALID,919.958,VALID,0,VALID,81.3495,VALID,316.844,VALID,23.756,VALID,76,VALID,2.65781,
2017-02-18, 17:56:04,VALID,919.941,VALID,0,VALID,77.0499,VALID,313.191,VALID,23.6566,VALID,115,VALID,3.93828,
2017-02-18, 17:57:04,VALID,919.94,VALID,0,VALID,78.384,VALID,317.489,VALID,23.5785,VALID,127,VALID,1.69766,
2017-02-18, 17:58:04,VALID,919.899,VALID,0,VALID,78.079,VALID,325.117,VALID,23.559,VALID,107,VALID,3.60195,
2017-02-18, 17:59:04,VALID,919.938,VALID,0,VALID,79.5351,VALID,330.811,VALID,23.4614,VALID,90,VALID,0.891797,
2017-02-18, 18:00:04,VALID,919.97,VALID,0,VALID,80.7853,VALID,343.919,VALID,23.4614,VALID,110,VALID,3.70117,
2017-02-18, 18:01:04,VALID,919.92,VALID,0,VALID,79.5351,VALID,705.351,VALID,23.4632,VALID,111,VALID,2.40742,
2017-02-18, 18:02:04,VALID,919.896,VALID,0,VALID,79.2302,VALID,496.7,VALID,23.5803,VALID,74,VALID,3.61484,
2017-02-18, 18:03:04,VALID,919.929,VALID,0,VALID,79.1692,VALID,378.73,VALID,23.6388,VALID,122,VALID,1.68945,
2017-02-18, 18:04:04,VALID,919.907,VALID,0,VALID,79.5046,VALID,397.64,VALID,23.7755,VALID,95,VALID,1.42695,
2017-02-18, 18:05:04,VALID,919.899,VALID,0,VALID,78.9481,VALID,330.704,VALID,23.8536,VALID,101,VALID,1.96055,
2017-02-18, 18:06:04,VALID,919.905,VALID,0,VALID,80.0078,VALID,293.959,VALID,23.8713,VALID,102,VALID,0.621875,
2017-02-18, 18:07:04,VALID,919.882,VALID,0,VALID,77.6216,VALID,276.231,VALID,23.8731,VALID,126,VALID,2.36992,
2017-02-18, 18:08:04,VALID,919.909,VALID,0,VALID,77.9342,VALID,268.925,VALID,23.8145,VALID,109,VALID,3.48711,
2017-02-18, 18:09:04,VALID,919.909,VALID,0,VALID,78.2162,VALID,269.892,VALID,23.637,VALID,120,VALID,2.6543,
2017-02-18, 18:10:04,VALID,919.859,VALID,0,VALID,78.4373,VALID,281.388,VALID,23.5803,VALID,110,VALID,3.06406,
2017-02-18, 18:11:04,VALID,919.895,VALID,0,VALID,79.7562,VALID,305.778,VALID,23.4614,VALID,95,VALID,2.6625,
2017-02-18, 18:12:04,VALID,919.885,VALID,0,VALID,78.6965,VALID,337.15,VALID,23.4809,VALID,141,VALID,2.69062,
2017-02-18, 18:13:04,VALID,919.869,VALID,0,VALID,80.2593,VALID,363.044,VALID,23.5199,VALID,131,VALID,2.30938,
2017-02-18, 18:14:04,VALID,919.8,VALID,0,VALID,78.666,VALID,754.989,VALID,23.5785,VALID,119,VALID,2.61953,
2017-02-18, 18:15:04,VALID,919.857,VALID,0,VALID,80.2441,VALID,383.995,VALID,23.6779,VALID,124,VALID,1.69766,
2017-02-18, 18:16:04,VALID,919.836,VALID,0,VALID,77.3091,VALID,363.366,VALID,23.6566,VALID,119,VALID,3.75586,
2017-02-18, 18:17:04,VALID,919.805,VALID,0,VALID,78.4373,VALID,368.953,VALID,23.5803,VALID,122,VALID,2.14258,
2017-02-18, 18:18:04,VALID,919.777,VALID,0,VALID,77.9571,VALID,347.142,VALID,23.5803,VALID,169,VALID,1.98359,
2017-02-18, 18:19:04,VALID,919.754,VALID,0,VALID,78.8566,VALID,345.746,VALID,23.637,VALID,120,VALID,3.00586,
2017-02-18, 18:20:04,VALID,919.779,VALID,0,VALID,79.032,VALID,334.787,VALID,23.7151,VALID,126,VALID,2.67969,
2017-02-18, 18:21:04,VALID,919.802,VALID,0,VALID,78.5288,VALID,328.555,VALID,23.6388,VALID,106,VALID,2.87852,
2017-02-18, 18:22:04,VALID,919.808,VALID,0,VALID,80.2212,VALID,320.497,VALID,23.6175,VALID,85,VALID,2.02344,
2017-02-18, 18:23:04,VALID,919.814,VALID,0,VALID,78.788,VALID,314.91,VALID,23.559,VALID,112,VALID,1.98438,
2017-02-18, 18:24:04,VALID,919.796,VALID,0,VALID,79.9086,VALID,321.786,VALID,23.5395,VALID,112,VALID,2.63984,
2017-02-18, 18:25:04,VALID,919.758,VALID,0,VALID,78.0866,VALID,338.977,VALID,23.5785,VALID,58,VALID,3.29531,
2017-02-18, 18:26:04,VALID,919.758,VALID,0,VALID,79.0091,VALID,373.036,VALID,23.637,VALID,75,VALID,1.96055,
2017-02-18, 18:27:04,VALID,919.753,VALID,0,VALID,77.2023,VALID,417.731,VALID,23.6761,VALID,109,VALID,2.56836,
2017-02-18, 18:28:04,VALID,919.735,VALID,0,VALID,79.0777,VALID,458.451,VALID,23.637,VALID,102,VALID,1.3625,
2017-02-18, 18:29:04,VALID,919.725,VALID,0,VALID,77.3167,VALID,1131.25,VALID,23.7364,VALID,126,VALID,1.98242,
2017-02-18, 18:30:04,VALID,919.744,VALID,0,VALID,79.7104,VALID,1125.88,VALID,24.0079,VALID,88,VALID,1.68203,